Harrisburg, IL

8:58 PM CST on January 23, 2018 (GMT -0600)
Harrisburg-Raleigh

Weather History for KHSB - May, 2013

Change the Weather History Date:

Friday, May 24, 2013

  Actual Average (KMWA) Record (KMWA)
Temperature  
Mean Temperature 55 °F -  
Max Temperature 67 °F 77 °F 91 °F (2012)
Min Temperature 43 °F 56 °F 44 °F (2013)
Degree Days  
Heating Degree Days 10    
Growing Degree Days 5 (Base 50)    
Moisture  
Dew Point 43 °F    
Average Humidity 65    
Maximum Humidity 92    
Minimum Humidity 37    
Precipitation  
Precipitation 0.00 in - - ()
Sea Level Pressure  
Sea Level Pressure 30.33 in    
Wind  
Wind Speed 5 mph (North)    
Max Wind Speed 14 mph    
Max Gust Speed 17 mph    
Visibility 10 miles    
Events      
Averages and records for this station are not official NWS values.
T = Trace of Precipitation, MM = Missing Value Source: NWS Daily Summary

Daily Weather History Graph

Daily Weather History Graph

Search for Another Location

Airport or City:

Trip Planner

Search our weather history database for the weather conditions in past years. The results will help you decide how hot, cold, wet, or windy it might be!

Date:

Astronomy

May. 24, 2013 Rise Set
Actual Time 5:37 AM CDT 8:04 PM CDT
Civil Twilight 5:07 AM CDT 8:35 PM CDT
Nautical Twilight 4:30 AM CDT 9:12 PM CDT
Astronomical Twilight 3:48 AM CDT 9:54 PM CDT
Moon 7:47 PM CDT 5:08 AM CDT
Length of Visible Light 15h 27m
Length of Day
14h 27m
Full, 100% of the Moon is Illuminated
May 24
Full
May 24
Full
May 31
Last Quarter
Jun 8
New
Jun 16
First Quarter

Hourly Weather History & Observations

Time (CDT) Temp. Windchill Dew Point Humidity Pressure Visibility Wind Dir Wind Speed Gust Speed Precip Events Conditions
12:15 AM 52.2 °F - 46.4 °F 81% 30.23 in 10.0 mi North 13.8 mph 17.3 mph N/A   Scattered Clouds
12:35 AM 51.1 °F - 45.5 °F 81% 30.24 in 10.0 mi North 10.4 mph - N/A   Clear
12:55 AM 50.2 °F - 45.7 °F 85% 30.23 in 10.0 mi North 4.6 mph - N/A   Clear
1:15 AM 50.0 °F - 45.5 °F 85% 30.24 in 10.0 mi North 4.6 mph - N/A   Clear
1:35 AM 49.6 °F - 45.1 °F 84% 30.24 in 10.0 mi North 10.4 mph - N/A   Clear
1:55 AM 49.5 °F - 44.2 °F 82% 30.24 in 10.0 mi North 9.2 mph - N/A   Clear
2:15 AM 49.1 °F - 43.7 °F 82% 30.25 in 10.0 mi North 5.8 mph - N/A   Clear
2:35 AM 48.4 °F - 42.6 °F 80% 30.25 in 10.0 mi NNE 10.4 mph - N/A   Clear
2:55 AM 48.2 °F - 41.2 °F 77% 30.25 in 10.0 mi North 4.6 mph - N/A   Clear
3:15 AM 47.5 °F - 40.5 °F 77% 30.25 in 10.0 mi North 5.8 mph - N/A   Clear
3:35 AM 46.8 °F - 39.7 °F 77% 30.26 in 10.0 mi North 4.6 mph - N/A   Clear
3:55 AM 46.4 °F 44.3 °F 38.7 °F 74% 30.27 in 10.0 mi North 4.6 mph - N/A   Clear
4:15 AM 45.9 °F - 38.5 °F 75% 30.27 in 10.0 mi Calm Calm - N/A   Clear
4:35 AM 45.7 °F - 38.3 °F 75% 30.28 in 10.0 mi Calm Calm - N/A   Clear
4:55 AM 45.1 °F - 37.9 °F 76% 30.28 in 10.0 mi Calm Calm - N/A   Clear
5:15 AM 45.0 °F 43.5 °F 38.1 °F 77% 30.29 in 10.0 mi North 3.5 mph - N/A   Clear
5:35 AM 44.1 °F 42.5 °F 37.8 °F 78% 30.30 in 10.0 mi NNW 3.5 mph - N/A   Clear
5:55 AM 43.7 °F 42.1 °F 38.3 °F 81% 30.32 in 10.0 mi NNW 3.5 mph - N/A   Clear
6:15 AM 44.1 °F - 38.3 °F 80% 30.33 in 10.0 mi Calm Calm - N/A   Clear
6:35 AM 45.3 °F 43.0 °F 39.4 °F 80% 30.34 in 10.0 mi NW 4.6 mph - N/A   Clear
6:55 AM 46.2 °F 45.0 °F 39.4 °F 77% 30.34 in 10.0 mi NNW 3.5 mph - N/A   Clear
7:15 AM 46.6 °F - 38.8 °F 74% 30.34 in 10.0 mi North 5.8 mph - N/A   Clear
7:35 AM 47.3 °F - 38.5 °F 71% 30.35 in 10.0 mi North 5.8 mph - N/A   Clear
7:55 AM 47.7 °F - 38.8 °F 71% 30.36 in 10.0 mi North 6.9 mph - N/A   Clear
8:15 AM 48.2 °F - 39.2 °F 71% 30.37 in 10.0 mi North 4.6 mph - N/A   Clear
8:35 AM 48.9 °F - 39.4 °F 70% 30.38 in 10.0 mi NNE 4.6 mph - N/A   Clear
8:55 AM 50.0 °F - 40.3 °F 69% 30.40 in 10.0 mi NNW 4.6 mph - N/A   Clear
9:15 AM 50.9 °F - 40.8 °F 68% 30.40 in 10.0 mi North 5.8 mph - N/A   Clear
9:35 AM 51.8 °F - 40.5 °F 65% 30.40 in 10.0 mi North 4.6 mph - N/A   Clear
9:55 AM 53.1 °F - 40.6 °F 63% 30.40 in 10.0 mi Calm Calm - N/A   Clear
10:15 AM 54.5 °F - 42.3 °F 63% 30.40 in 10.0 mi NW 5.8 mph - N/A   Clear
10:35 AM 55.6 °F - 42.1 °F 60% 30.39 in 10.0 mi NE 5.8 mph - N/A   Clear
10:55 AM 56.5 °F - 42.1 °F 59% 30.40 in 10.0 mi Calm Calm - N/A   Clear
11:15 AM 58.3 °F - 41.0 °F 53% 30.39 in 10.0 mi North 4.6 mph - N/A   Clear
11:35 AM 58.6 °F - 41.4 °F 53% 30.40 in 10.0 mi North 5.8 mph - N/A   Clear
11:55 AM 60.3 °F - 42.4 °F 52% 30.39 in 10.0 mi North 4.6 mph - N/A   Clear
12:15 PM 60.4 °F - 43.2 °F 53% 30.39 in 10.0 mi NNW 5.8 mph - N/A   Clear
12:35 PM 61.5 °F - 40.3 °F 46% 30.39 in 10.0 mi NNW 6.9 mph - N/A   Clear
12:55 PM 62.1 °F - 42.1 °F 48% 30.38 in 10.0 mi Calm Calm - N/A   Clear
1:15 PM 62.4 °F - 41.7 °F 47% 30.38 in 10.0 mi Calm Calm - N/A   Clear
1:35 PM 63.0 °F - 40.8 °F 44% 30.38 in 10.0 mi NNW 5.8 mph - N/A   Clear
1:55 PM 64.4 °F - 41.5 °F 43% 30.37 in 10.0 mi NW 6.9 mph - N/A   Clear
2:15 PM 63.9 °F - 39.2 °F 40% 30.38 in 10.0 mi Calm Calm - N/A   Clear
2:35 PM 64.9 °F - 41.7 °F 43% 30.37 in 10.0 mi Calm Calm - N/A   Clear
2:55 PM 65.3 °F - 41.2 °F 41% 30.37 in 10.0 mi NNE 5.8 mph - N/A   Clear
3:15 PM 66.4 °F - 42.1 °F 41% 30.37 in 7.0 mi Calm Calm - N/A   Clear
3:35 PM 66.6 °F - 41.4 °F 40% 30.36 in 10.0 mi North 4.6 mph - N/A   Clear
3:55 PM 66.6 °F - 43.7 °F 44% 30.34 in 10.0 mi NNE 5.8 mph - N/A   Clear
4:15 PM 67.1 °F - 43.0 °F 42% 30.34 in 10.0 mi North 8.1 mph - N/A   Clear
4:35 PM 66.7 °F - 43.3 °F 43% 30.33 in 10.0 mi ENE 8.1 mph - N/A   Clear
4:55 PM 67.1 °F - 42.4 °F 41% 30.32 in 10.0 mi NNE 6.9 mph - N/A   Clear
5:15 PM 67.1 °F - 44.1 °F 43% 30.31 in 10.0 mi ENE 5.8 mph - N/A   Clear
5:35 PM 67.1 °F - 42.8 °F 41% 30.31 in 10.0 mi NE 3.5 mph - N/A   Clear
5:55 PM 67.1 °F - 41.4 °F 39% 30.30 in 10.0 mi Calm Calm - N/A   Clear
6:15 PM 67.3 °F - 40.5 °F 38% 30.31 in 10.0 mi Calm Calm - N/A   Clear
6:35 PM 66.9 °F - 39.9 °F 37% 30.30 in 10.0 mi Calm Calm - N/A   Clear
6:55 PM 66.4 °F - 39.6 °F 37% 30.30 in 10.0 mi Calm Calm - N/A   Clear
7:15 PM 66.2 °F - 41.9 °F 41% 30.29 in 10.0 mi Calm Calm - N/A   Clear
7:35 PM 65.5 °F - 42.1 °F 43% 30.29 in 10.0 mi Calm Calm - N/A   Clear
7:55 PM 64.4 °F - 42.4 °F 45% 30.29 in 10.0 mi Calm Calm - N/A   Clear
8:15 PM 59.5 °F - 45.7 °F 60% 30.29 in 10.0 mi North 3.5 mph - N/A   Clear
8:35 PM 57.2 °F - 48.4 °F 72% 30.29 in 10.0 mi Calm Calm - N/A   Clear
8:55 PM 55.9 °F - 49.3 °F 78% 30.30 in 10.0 mi NNE 3.5 mph - N/A   Clear
9:15 PM 56.3 °F - 50.7 °F 82% 30.30 in 10.0 mi ENE 3.5 mph - N/A   Clear
9:35 PM 55.6 °F - 50.9 °F 84% 30.31 in 10.0 mi Calm Calm - N/A   Clear
9:55 PM 54.0 °F - 49.1 °F 84% 30.32 in 10.0 mi Calm Calm - N/A   Clear
10:15 PM 51.4 °F - 49.1 °F 92% 30.33 in 10.0 mi Calm Calm - N/A   Clear
10:35 PM 53.1 °F - 49.6 °F 88% 30.33 in 10.0 mi Calm Calm - N/A   Clear
10:55 PM 51.6 °F - 48.9 °F 90% 30.34 in 10.0 mi Calm Calm - N/A   Clear
11:15 PM 51.6 °F - 49.3 °F 92% 30.34 in 10.0 mi Calm Calm - N/A   Clear
11:35 PM 51.8 °F - 49.3 °F 91% 30.34 in 10.0 mi Calm Calm - N/A   Clear
11:55 PM 50.4 °F - 48.2 °F 92% 30.33 in 10.0 mi Calm Calm - N/A   Clear